TimeCDT,TemperatureF,Dew PointF,Humidity,Sea Level PressureIn,VisibilityMPH,Wind Direction,Wind SpeedMPH,Gust SpeedMPH,PrecipitationIn,Events,Conditions,WindDirDegrees,DateUTC
12:55 AM,66.9,64.0,90,30.02,10.0,Calm,Calm,-,N/A,,Clear,0,2012-10-06 05:55:00
1:55 AM,66.0,64.0,93,30.02,7.0,Calm,Calm,-,N/A,,Clear,0,2012-10-06 06:55:00
2:55 AM,66.9,64.0,90,30.02,9.0,Calm,Calm,-,N/A,,Clear,0,2012-10-06 07:55:00
3:55 AM,64.9,63.0,93,30.00,9.0,Calm,Calm,-,N/A,,Clear,0,2012-10-06 08:55:00
4:55 AM,66.9,64.9,93,30.01,9.0,WNW,3.5,-,N/A,,Clear,290,2012-10-06 09:55:00
5:55 AM,68.0,66.0,93,30.03,8.0,Calm,Calm,-,N/A,,Clear,0,2012-10-06 10:55:00
6:55 AM,66.9,64.9,93,30.04,7.0,Calm,Calm,-,N/A,,Clear,0,2012-10-06 11:55:00
7:48 AM,66.2,64.4,94,30.04,5.0,North,4.6,-,N/A,,Scattered Clouds,10,2012-10-06 12:48:00
7:55 AM,66.9,66.0,97,30.05,5.0,North,5.8,-,N/A,,Mostly Cloudy,10,2012-10-06 12:55:00
8:05 AM,66.2,66.2,100,30.05,1.8,NNE,8.1,-,N/A,,Mostly Cloudy,20,2012-10-06 13:05:00
8:12 AM,66.2,66.2,100,30.05,1.0,Variable,5.8,-,N/A,,Overcast,0,2012-10-06 13:12:00
8:22 AM,66.2,66.2,100,30.05,0.8,NNE,9.2,-,N/A,,Overcast,30,2012-10-06 13:22:00
8:44 AM,66.2,64.4,94,30.06,0.8,NNE,6.9,-,N/A,,Overcast,20,2012-10-06 13:44:00
8:48 AM,66.2,64.4,94,30.06,1.2,NE,4.6,-,N/A,,Overcast,50,2012-10-06 13:48:00
8:55 AM,66.9,66.0,97,30.07,2.0,NE,5.8,-,N/A,,Overcast,40,2012-10-06 13:55:00
9:24 AM,66.2,64.4,94,30.07,4.0,NE,10.4,-,N/A,,Overcast,40,2012-10-06 14:24:00
9:55 AM,66.0,64.0,93,30.09,3.0,NNE,10.4,-,N/A,,Overcast,20,2012-10-06 14:55:00
10:06 AM,64.4,62.6,94,30.08,2.5,NNE,11.5,-,N/A,,Overcast,30,2012-10-06 15:06:00
10:35 AM,64.4,62.6,94,30.09,3.0,NE,9.2,-,N/A,,Overcast,40,2012-10-06 15:35:00
10:55 AM,64.0,61.0,90,30.09,7.0,NE,6.9,-,N/A,,Overcast,40,2012-10-06 15:55:00
11:55 AM,64.0,60.1,87,30.09,10.0,NE,6.9,-,N/A,,Overcast,50,2012-10-06 16:55:00
12:07 PM,64.4,60.8,88,30.08,10.0,ENE,5.8,-,N/A,,Overcast,60,2012-10-06 17:07:00
12:35 PM,66.2,60.8,83,30.07,10.0,East,4.6,-,N/A,,Overcast,80,2012-10-06 17:35:00
12:55 PM,64.9,60.1,84,30.08,10.0,NE,8.1,-,N/A,,Overcast,40,2012-10-06 17:55:00
1:55 PM,64.9,59.0,81,30.06,10.0,NE,5.8,-,N/A,,Overcast,50,2012-10-06 18:55:00
2:10 PM,66.2,59.0,78,30.04,10.0,North,6.9,-,N/A,,Overcast,10,2012-10-06 19:10:00
2:55 PM,66.0,59.0,78,30.04,10.0,NE,4.6,-,N/A,,Overcast,50,2012-10-06 19:55:00
3:50 PM,66.2,59.0,78,30.03,10.0,NE,11.5,-,N/A,,Overcast,40,2012-10-06 20:50:00
3:55 PM,66.9,59.0,76,30.04,10.0,NE,8.1,-,N/A,,Overcast,40,2012-10-06 20:55:00
4:55 PM,66.0,57.0,73,30.04,10.0,NE,11.5,-,N/A,,Overcast,40,2012-10-06 21:55:00
5:55 PM,63.0,55.9,78,30.05,10.0,NNE,8.1,-,N/A,,Overcast,20,2012-10-06 22:55:00
6:52 PM,60.8,55.4,82,30.05,10.0,NNE,8.1,17.3,N/A,,Overcast,20,2012-10-06 23:52:00
6:55 PM,60.1,55.0,83,30.06,10.0,NNE,11.5,17.3,N/A,,Overcast,30,2012-10-06 23:55:00
7:55 PM,57.9,53.1,84,30.08,10.0,North,9.2,-,N/A,,Overcast,10,2012-10-07 00:55:00
8:55 PM,55.9,51.1,84,30.11,10.0,NNE,11.5,20.7,N/A,,Overcast,20,2012-10-07 01:55:00
9:55 PM,54.0,50.0,86,30.12,10.0,NNE,10.4,19.6,N/A,,Overcast,30,2012-10-07 02:55:00
10:15 PM,53.6,50.0,88,30.12,9.0,North,12.7,-,N/A,,Overcast,10,2012-10-07 03:15:00
10:45 PM,53.6,50.0,88,30.12,10.0,NNE,12.7,17.3,N/A,,Overcast,20,2012-10-07 03:45:00
10:53 PM,53.6,50.0,88,30.12,10.0,NNE,11.5,19.6,N/A,,Overcast,30,2012-10-07 03:53:00
10:55 PM,53.1,50.0,89,30.14,10.0,NNE,10.4,19.6,N/A,,Overcast,30,2012-10-07 03:55:00
11:55 PM,53.1,48.0,83,30.14,10.0,NNE,9.2,-,N/A,,Overcast,30,2012-10-07 04:55:00